Weather History for Walnut Ridge, AR

Change the Weather History Date:

Monday, November 5, 2012

  Actual Average Record
Temperature  
Mean Temperature 44 °F -  
Max Temperature 48 °F 60 °F 80 °F (2007)
Min Temperature 39 °F 43 °F 35 °F (1998)
Degree Days  
Heating Degree Days 22    
Moisture  
Dew Point 41 °F    
Average Humidity 87    
Maximum Humidity 100    
Minimum Humidity 71    
Precipitation  
Precipitation 0.10 in - - ()
Sea Level Pressure  
Sea Level Pressure 30.07 in    
Wind  
Wind Speed 5 mph (ENE)    
Max Wind Speed 9 mph    
Max Gust Speed -    
Visibility 9 miles    
Events      
Averages and records for this station are not official NWS values.
T = Trace of Precipitation, MM = Missing Value Source: NWS Daily Summary

Daily Weather History Graph

Daily Weather History Graph

Search for Another Location

Airport:

Trip Planner

Search our weather history database for the weather conditions in past years. The results will help you decide how hot, cold, wet, or windy it might be!

Date:

Astronomy

Nov. 05, 2012 Rise Set
Actual Time 6:30 AM CST 5:03 PM CST
Civil Twilight 6:04 AM CST 5:30 PM CST
Nautical Twilight 5:33 AM CST 6:00 PM CST
Astronomical Twilight 5:03 AM CST 6:30 PM CST
Moon 10:40 PM CST (11/5) 11:50 AM CST (11/5)
Length of Visible Light 11h 26m
Length of Day
10h 32m
Waning Gibbous, 62% of the Moon is Illuminated
Nov 5
Waning Gibbous
Nov 6
Last Quarter
Nov 13
New
Nov 20
First Quarter
Nov 28
Full

Hourly Weather History & Observations

Time (CST) Temp. Windchill Dew Point Humidity Pressure Visibility Wind Dir Wind Speed Gust Speed Precip Events Conditions
12:15 AM 39.2 °F 35.9 °F 35.6 °F 87% 30.14 in 10.0 mi NNW 4.6 mph - N/A   Clear
12:55 AM 39.2 °F - 37.4 °F 93% 30.14 in 10.0 mi Calm Calm - N/A   Clear
1:15 AM 41.0 °F 37.1 °F 37.4 °F 87% 30.16 in 10.0 mi NW 5.8 mph - N/A   Scattered Clouds
1:35 AM 41.0 °F 39.0 °F 37.4 °F 87% 30.16 in 9.0 mi North 3.5 mph - N/A   Partly Cloudy
2:15 AM 42.8 °F - 37.4 °F 81% 30.15 in 10.0 mi Calm Calm - N/A   Clear
2:35 AM 42.8 °F - 37.4 °F 81% 30.15 in 10.0 mi Calm Calm - N/A   Clear
2:55 AM 42.8 °F 40.1 °F 39.2 °F 87% 30.14 in 10.0 mi NE 4.6 mph - N/A   Partly Cloudy
3:16 AM 42.8 °F 40.1 °F 39.2 °F 87% 30.13 in 10.0 mi ENE 4.6 mph - N/A   Partly Cloudy
3:35 AM 42.8 °F 40.1 °F 39.2 °F 87% 30.12 in 10.0 mi East 4.6 mph - N/A   Clear
3:55 AM 42.8 °F 40.1 °F 39.2 °F 87% 30.12 in 10.0 mi NE 4.6 mph - N/A   Clear
4:35 AM 42.8 °F 40.1 °F 39.2 °F 87% 30.12 in 10.0 mi NNE 4.6 mph - N/A   Clear
4:55 AM 42.8 °F - 39.2 °F 87% 30.12 in 10.0 mi Calm Calm - N/A   Clear
5:15 AM 42.8 °F 41.1 °F 39.2 °F 87% 30.11 in 10.0 mi ESE 3.5 mph - N/A   Clear
5:36 AM 42.8 °F - 37.4 °F 81% 30.10 in 8.0 mi Calm Calm - N/A   Clear
5:55 AM 42.8 °F - 37.4 °F 81% 30.10 in 10.0 mi Calm Calm - N/A   Clear
6:15 AM 42.8 °F 41.1 °F 37.4 °F 81% 30.09 in 10.0 mi ENE 3.5 mph - N/A   Partly Cloudy
6:55 AM 42.8 °F 41.1 °F 39.2 °F 87% 30.10 in 10.0 mi North 3.5 mph - N/A   Partly Cloudy
7:15 AM 42.8 °F 40.1 °F 39.2 °F 87% 30.10 in 10.0 mi NE 4.6 mph - N/A   Clear
7:35 AM 42.8 °F 39.3 °F 39.2 °F 87% 30.09 in 10.0 mi ENE 5.8 mph - N/A   Clear
7:55 AM 44.6 °F 41.4 °F 39.2 °F 81% 30.10 in 10.0 mi NE 5.8 mph - N/A   Clear
8:15 AM 44.6 °F 43.1 °F 39.2 °F 81% 30.10 in 10.0 mi NNE 3.5 mph - N/A   Clear
8:35 AM 46.4 °F - 39.2 °F 76% 30.09 in 10.0 mi Calm Calm - N/A   Mostly Cloudy
8:56 AM 46.4 °F 44.3 °F 37.4 °F 71% 30.09 in 10.0 mi ESE 4.6 mph - N/A   Overcast
9:15 AM 46.4 °F 44.3 °F 37.4 °F 71% 30.09 in 10.0 mi ENE 4.6 mph - N/A   Mostly Cloudy
9:35 AM 46.4 °F - 39.2 °F 76% 30.09 in 10.0 mi Calm Calm - N/A   Overcast
10:15 AM 46.4 °F 42.9 °F 39.2 °F 76% 30.11 in 10.0 mi NNE 6.9 mph - N/A   Mostly Cloudy
10:35 AM 46.4 °F 41.9 °F 41.0 °F 81% 30.10 in 5.0 mi SSE 9.2 mph - N/A   Partly Cloudy
10:55 AM 44.6 °F 39.7 °F 42.8 °F 93% 30.09 in 9.0 mi ESE 9.2 mph - N/A   Mostly Cloudy
11:35 AM 46.4 °F 42.4 °F 39.2 °F 76% 30.08 in 10.0 mi SE 8.1 mph - N/A   Overcast
11:55 AM 46.4 °F 42.4 °F 42.8 °F 87% 30.05 in 8.0 mi East 8.1 mph - 0.02 in   Mostly Cloudy
12:35 PM 46.4 °F 41.9 °F 42.8 °F 87% 30.05 in 10.0 mi SSE 9.2 mph - N/A   Overcast
12:55 PM 46.4 °F 42.4 °F 42.8 °F 87% 30.04 in 5.0 mi SE 8.1 mph - 0.01 in   Mostly Cloudy
1:15 PM 46.4 °F 44.3 °F 42.8 °F 87% 30.04 in 8.0 mi SSE 4.6 mph - 0.01 in   Overcast
1:36 PM 46.4 °F 43.5 °F 42.8 °F 87% 30.03 in 10.0 mi SSE 5.8 mph - 0.01 in   Overcast
1:55 PM 46.4 °F 44.3 °F 42.8 °F 87% 30.00 in 10.0 mi ESE 4.6 mph - 0.01 in   Overcast
2:15 PM 46.4 °F 43.5 °F 42.8 °F 87% 29.99 in 10.0 mi East 5.8 mph - N/A   Overcast
2:35 PM 46.4 °F 42.9 °F 42.8 °F 87% 30.00 in 10.0 mi East 6.9 mph - N/A   Overcast
2:55 PM 46.4 °F 43.5 °F 42.8 °F 87% 30.00 in 10.0 mi East 5.8 mph - N/A   Overcast
3:15 PM 48.2 °F - 42.8 °F 82% 30.00 in 10.0 mi East 6.9 mph - N/A   Overcast
3:36 PM 48.2 °F - 44.6 °F 87% 30.00 in 10.0 mi East 9.2 mph - N/A   Overcast
3:55 PM 48.2 °F - 42.8 °F 82% 30.00 in 10.0 mi East 6.9 mph - N/A   Overcast
4:15 PM 48.2 °F - 42.8 °F 82% 30.01 in 10.0 mi NE 3.5 mph - N/A   Overcast
4:55 PM 46.4 °F 43.5 °F 44.6 °F 93% 30.01 in 9.0 mi ENE 5.8 mph - N/A   Overcast
5:15 PM 46.4 °F 45.2 °F 44.6 °F 93% 30.02 in 5.0 mi North 3.5 mph - 0.04 in   Overcast
5:35 PM 46.4 °F 43.5 °F 44.6 °F 93% 30.03 in 7.0 mi NNE 5.8 mph - 0.05 in   Overcast
5:56 PM 46.4 °F 42.4 °F 44.6 °F 93% 30.04 in 9.0 mi NNE 8.1 mph - N/A   Overcast
6:35 PM 44.6 °F 40.7 °F 44.6 °F 100% 30.05 in 7.0 mi NNE 6.9 mph - N/A   Overcast
6:55 PM 44.6 °F 39.7 °F 44.6 °F 100% 30.05 in 6.0 mi NE 9.2 mph - N/A   Overcast
7:15 PM 44.6 °F 40.2 °F 42.8 °F 93% 30.05 in 10.0 mi NE 8.1 mph - N/A   Overcast
7:55 PM 44.6 °F 41.4 °F 42.8 °F 93% 30.05 in 8.0 mi NE 5.8 mph - N/A   Overcast
8:15 PM 44.6 °F 41.4 °F 44.6 °F 100% 30.06 in 7.0 mi NNE 5.8 mph - N/A   Overcast
8:55 PM 44.6 °F 40.2 °F 44.6 °F 100% 30.06 in 8.0 mi NNE 8.1 mph - 0.01 in   Overcast
9:15 PM 44.6 °F 40.2 °F 44.6 °F 100% 30.06 in 5.0 mi NNE 8.1 mph - N/A   Overcast
9:35 PM 44.6 °F 40.2 °F 42.8 °F 93% 30.06 in 5.0 mi NNE 8.1 mph - N/A   Overcast
9:56 PM 44.6 °F 40.2 °F 42.8 °F 93% 30.06 in 5.0 mi NNE 8.1 mph - N/A   Overcast
10:15 PM 44.6 °F 40.2 °F 42.8 °F 93% 30.06 in 6.0 mi NNE 8.1 mph - N/A   Overcast
10:35 PM 44.6 °F 40.2 °F 42.8 °F 93% 30.05 in 5.0 mi NNE 8.1 mph - N/A   Overcast
10:55 PM 44.6 °F 40.2 °F 42.8 °F 93% 30.05 in 4.0 mi NE 8.1 mph - N/A   Overcast
11:15 PM 44.6 °F 40.2 °F 42.8 °F 93% 30.04 in 5.0 mi NE 8.1 mph - N/A   Overcast
11:35 PM 44.6 °F 40.7 °F 42.8 °F 93% 30.05 in 5.0 mi NNE 6.9 mph - N/A   Overcast